| time (UTC) | temp F | wind direction | speed MPH | gust MPH | rain 1hr in | rain 24hr in | rain mn in | humidity % | barometer mb |
| 20260509000502 | 67 | 7 | 0.0 | 3.0 | 0.00 | 0.00 | 0.00 | 36 | 1016.6 |
| 20260508235957 | 68 | 10 | 0.0 | 2.0 | 0.00 | 0.00 | 0.00 | 37 | 1016.5 |
| 20260508235456 | 68 | 338 | 1.0 | 3.0 | 0.00 | 0.00 | 0.00 | 34 | 1016.7 |
| 20260508234952 | 68 | 331 | 4.0 | 7.0 | 0.00 | 0.00 | 0.00 | 33 | 1016.7 |
| 20260508234449 | 68 | 296 | 2.0 | 5.0 | 0.00 | 0.00 | 0.00 | 34 | 1016.8 |
| 20260508233946 | 68 | 334 | 2.0 | 3.0 | 0.00 | 0.00 | 0.00 | 34 | 1017.0 |
| 20260508233446 | 68 | 342 | 2.0 | 5.0 | 0.00 | 0.00 | 0.00 | 34 | 1016.8 |
| 20260508232942 | 69 | 313 | 2.0 | 9.0 | 0.00 | 0.00 | 0.00 | 33 | 1016.9 |
| 20260508232439 | 69 | 332 | 2.0 | 5.0 | 0.00 | 0.00 | 0.00 | 33 | 1016.7 |
| 20260508231936 | 69 | 297 | 1.0 | 9.0 | 0.00 | 0.00 | 0.00 | 34 | 1016.8 |
| 20260508231434 | 68 | 16 | 2.0 | 9.0 | 0.00 | 0.00 | 0.00 | 33 | 1016.8 |
| 20260508230930 | 69 | 298 | 3.0 | 5.0 | 0.00 | 0.00 | 0.00 | 33 | 1016.8 |
| 20260508230427 | 69 | 279 | 1.0 | 3.0 | 0.00 | 0.00 | 0.00 | 33 | 1016.7 |
| 20260508225924 | 70 | 335 | 2.0 | 7.0 | 0.00 | 0.00 | 0.00 | 32 | 1016.8 |
| 20260508225421 | 70 | 319 | 3.0 | 5.0 | 0.00 | 0.00 | 0.00 | 33 | 1016.8 |
| 20260508224918 | 71 | 252 | 1.0 | 7.0 | 0.00 | 0.00 | 0.00 | 34 | 1017.0 |
| 20260508224416 | 71 | 329 | 4.0 | 9.0 | 0.00 | 0.00 | 0.00 | 32 | 1016.8 |
| 20260508223913 | 72 | 12 | 1.0 | 5.0 | 0.00 | 0.00 | 0.00 | 33 | 1016.9 |
| 20260508223411 | 71 | 0 | 2.0 | 3.0 | 0.00 | 0.00 | 0.00 | 34 | 1016.8 |
| 20260508222908 | 71 | 289 | 4.0 | 9.0 | 0.00 | 0.00 | 0.00 | 31 | 1016.6 |
| 20260508222405 | 71 | 88 | 5.0 | 12.0 | 0.00 | 0.00 | 0.00 | 31 | 1016.9 |
| 20260508221901 | 71 | 278 | 6.0 | 7.0 | 0.00 | 0.00 | 0.00 | 32 | 1017.0 |
| 20260508221357 | 72 | 340 | 3.0 | 7.0 | 0.00 | 0.00 | 0.00 | 31 | 1016.8 |
| 20260508220854 | 73 | 357 | 0.0 | 5.0 | 0.00 | 0.00 | 0.00 | 33 | 1016.7 |
| 20260508220350 | 72 | 354 | 3.0 | 5.0 | 0.00 | 0.00 | 0.00 | 31 | 1016.7 |
| 20260508215847 | 73 | 18 | 7.0 | 12.0 | 0.00 | 0.00 | 0.00 | 30 | 1016.8 |
| 20260508215344 | 73 | 344 | 1.0 | 7.0 | 0.00 | 0.00 | 0.00 | 30 | 1016.6 |
| 20260508214840 | 73 | 41 | 2.0 | 7.0 | 0.00 | 0.00 | 0.00 | 29 | 1016.3 |
| 20260508214338 | 73 | 351 | 3.0 | 9.0 | 0.00 | 0.00 | 0.00 | 30 | 1016.5 |
| 20260508213834 | 72 | 217 | 4.0 | 5.0 | 0.00 | 0.00 | 0.00 | 31 | 1016.3 |
| 20260508213332 | 72 | 357 | 4.0 | 5.0 | 0.00 | 0.00 | 0.00 | 31 | 1016.7 |
| 20260508212827 | 74 | 307 | 5.0 | 7.0 | 0.00 | 0.00 | 0.00 | 30 | 1016.6 |
| 20260508212323 | 73 | 359 | 4.0 | 12.0 | 0.00 | 0.00 | 0.00 | 31 | 1016.9 |
| 20260508211819 | 72 | 309 | 3.0 | 14.0 | 0.00 | 0.00 | 0.00 | 30 | 1016.8 |
| 20260508211315 | 72 | 328 | 2.0 | 9.0 | 0.00 | 0.00 | 0.00 | 32 | 1017.0 |
| 20260508210813 | 73 | 0 | 3.0 | 9.0 | 0.00 | 0.00 | 0.00 | 30 | 1017.3 |
| 20260508210310 | 73 | 13 | 2.0 | 5.0 | 0.00 | 0.00 | 0.00 | 31 | 1017.0 |
| 20260508205806 | 72 | 289 | 4.0 | 9.0 | 0.00 | 0.00 | 0.00 | 30 | 1017.3 |
| 20260508205306 | 73 | 345 | 3.0 | 5.0 | 0.00 | 0.00 | 0.00 | 29 | 1017.0 |
| 20260508204759 | 73 | 203 | 4.0 | 5.0 | 0.00 | 0.00 | 0.00 | 30 | 1017.4 |
| 20260508204256 | 73 | 314 | 3.0 | 5.0 | 0.00 | 0.00 | 0.00 | 32 | 1017.4 |
| 20260508203752 | 72 | 241 | 2.0 | 7.0 | 0.00 | 0.00 | 0.00 | 31 | 1017.6 |
| 20260508203248 | 71 | 258 | 3.0 | 9.0 | 0.00 | 0.00 | 0.00 | 32 | 1017.7 |
| 20260508202744 | 72 | 0 | 3.0 | 9.0 | 0.00 | 0.00 | 0.00 | 32 | 1017.8 |
| 20260508202241 | 72 | 271 | 7.0 | 10.0 | 0.00 | 0.00 | 0.00 | 32 | 1018.1 |
| 20260508201738 | 73 | 215 | 8.0 | 10.0 | 0.00 | 0.00 | 0.00 | 30 | 1017.8 |
| 20260508201235 | 72 | 313 | 4.0 | 7.0 | 0.00 | 0.00 | 0.00 | 30 | 1018.1 |
| 20260508200732 | 73 | 42 | 2.0 | 5.0 | 0.00 | 0.00 | 0.00 | 29 | 1017.7 |
| 20260508200228 | 72 | 354 | 4.0 | 7.0 | 0.00 | 0.00 | 0.00 | 31 | 1017.8 |
| 20260508195724 | 72 | 313 | 6.0 | 12.0 | 0.00 | 0.00 | 0.00 | 31 | 1017.7 |
| 20260508195221 | 72 | 34 | 2.0 | 7.0 | 0.00 | 0.00 | 0.00 | 31 | 1017.8 |
| 20260508194718 | 73 | 305 | 6.0 | 9.0 | 0.00 | 0.00 | 0.00 | 31 | 1018.1 |
| 20260508194214 | 73 | 310 | 2.0 | 5.0 | 0.00 | 0.00 | 0.00 | 35 | 1017.8 |
| 20260508193712 | 73 | 265 | 3.0 | 5.0 | 0.00 | 0.00 | 0.00 | 36 | 1017.8 |
| 20260508193208 | 72 | 165 | 2.0 | 5.0 | 0.00 | 0.00 | 0.00 | 36 | 1018.2 |
| 20260508192705 | 72 | 310 | 3.0 | 5.0 | 0.00 | 0.00 | 0.00 | 34 | 1018.0 |
| 20260508192202 | 71 | 334 | 0.0 | 10.0 | 0.00 | 0.00 | 0.00 | 34 | 1018.1 |
| 20260508191659 | 72 | 326 | 2.0 | 7.0 | 0.00 | 0.00 | 0.00 | 35 | 1018.1 |
| 20260508191155 | 73 | 345 | 6.0 | 10.0 | 0.00 | 0.00 | 0.00 | 32 | 1017.8 |
| 20260508190653 | 72 | 325 | 5.0 | 7.0 | 0.00 | 0.00 | 0.00 | 36 | 1018.3 |
| 20260508190149 | 72 | 24 | 2.0 | 7.0 | 0.00 | 0.00 | 0.00 | 37 | 1018.4 |
| 20260508185646 | 72 | 355 | 1.0 | 7.0 | 0.00 | 0.00 | 0.00 | 34 | 1018.3 |
| 20260508185143 | 73 | 13 | 3.0 | 5.0 | 0.00 | 0.00 | 0.00 | 35 | 1018.6 |
| 20260508184641 | 73 | 13 | 0.0 | 5.0 | 0.00 | 0.00 | 0.00 | 33 | 1018.6 |
| 20260508184138 | 72 | 334 | 5.0 | 9.0 | 0.00 | 0.00 | 0.00 | 32 | 1018.7 |
| 20260508183634 | 72 | 39 | 1.0 | 7.0 | 0.00 | 0.00 | 0.00 | 32 | 1018.6 |
| 20260508183130 | 72 | 227 | 3.0 | 3.0 | 0.00 | 0.00 | 0.00 | 33 | 1018.7 |
| 20260508182627 | 72 | 354 | 5.0 | 10.0 | 0.00 | 0.00 | 0.00 | 31 | 1018.9 |
| 20260508182124 | 72 | 36 | 2.0 | 3.0 | 0.00 | 0.00 | 0.00 | 33 | 1019.2 |
| 20260508181619 | 71 | 12 | 3.0 | 9.0 | 0.00 | 0.00 | 0.00 | 34 | 1019.2 |
| 20260508181117 | 71 | 293 | 3.0 | 5.0 | 0.00 | 0.00 | 0.00 | 34 | 1019.3 |
| 20260508180613 | 70 | 287 | 3.0 | 9.0 | 0.00 | 0.00 | 0.00 | 32 | 1019.4 |
| 20260508180109 | 71 | 301 | 3.0 | 9.0 | 0.00 | 0.00 | 0.00 | 34 | 1019.3 |
| 20260508175606 | 70 | 335 | 6.0 | 10.0 | 0.00 | 0.00 | 0.00 | 35 | 1019.6 |
| 20260508175103 | 72 | 23 | 2.0 | 7.0 | 0.00 | 0.00 | 0.00 | 28 | 1019.7 |
| 20260508174601 | 71 | 45 | 2.0 | 3.0 | 0.00 | 0.00 | 0.00 | 32 | 1019.8 |
| 20260508174057 | 70 | 343 | 2.0 | 12.0 | 0.00 | 0.00 | 0.00 | 31 | 1020.0 |
| 20260508173555 | 69 | 201 | 5.0 | 7.0 | 0.00 | 0.00 | 0.00 | 32 | 1020.0 |
| 20260508173050 | 70 | 319 | 2.0 | 7.0 | 0.00 | 0.00 | 0.00 | 34 | 1019.8 |
| 20260508172548 | 70 | 3 | 2.0 | 14.0 | 0.00 | 0.00 | 0.00 | 35 | 1020.2 |
| 20260508172044 | 69 | 291 | 4.0 | 7.0 | 0.00 | 0.00 | 0.00 | 34 | 1020.3 |
| 20260508171541 | 69 | 20 | 0.0 | 9.0 | 0.00 | 0.00 | 0.00 | 37 | 1020.1 |
| 20260508171038 | 70 | 16 | 3.0 | 7.0 | 0.00 | 0.00 | 0.00 | 35 | 1020.4 |
| 20260508170535 | 69 | 22 | 3.0 | 5.0 | 0.00 | 0.00 | 0.00 | 36 | 1020.3 |
| 20260508170032 | 69 | 247 | 3.0 | 5.0 | 0.00 | 0.00 | 0.00 | 39 | 1020.6 |
| 20260508165529 | 70 | 344 | 3.0 | 5.0 | 0.00 | 0.00 | 0.00 | 39 | 1020.8 |
| 20260508165026 | 68 | 14 | 2.0 | 7.0 | 0.00 | 0.00 | 0.00 | 42 | 1021.1 |
| 20260508164522 | 67 | 317 | 4.0 | 7.0 | 0.00 | 0.00 | 0.00 | 39 | 1021.2 |
| 20260508164019 | 67 | 300 | 5.0 | 9.0 | 0.00 | 0.00 | 0.00 | 39 | 1021.1 |
| 20260508163517 | 67 | 23 | 0.0 | 5.0 | 0.00 | 0.00 | 0.00 | 41 | 1021.0 |
| 20260508163013 | 67 | 257 | 4.0 | 7.0 | 0.00 | 0.00 | 0.00 | 41 | 1021.3 |
| 20260508162510 | 67 | 342 | 1.0 | 3.0 | 0.00 | 0.00 | 0.00 | 40 | 1021.2 |
| 20260508162007 | 67 | 332 | 3.0 | 5.0 | 0.00 | 0.00 | 0.00 | 42 | 1021.4 |
| 20260508161504 | 67 | 295 | 5.0 | 7.0 | 0.00 | 0.00 | 0.00 | 42 | 1021.3 |
| 20260508161001 | 66 | 260 | 2.0 | 5.0 | 0.00 | 0.00 | 0.00 | 43 | 1021.3 |
| 20260508160500 | 66 | 334 | 4.0 | 5.0 | 0.00 | 0.00 | 0.00 | 45 | 1021.4 |
| 20260508155955 | 66 | 307 | 3.0 | 5.0 | 0.00 | 0.00 | 0.00 | 41 | 1021.7 |
| 20260508155453 | 66 | 19 | 3.0 | 5.0 | 0.00 | 0.00 | 0.00 | 43 | 1021.6 |
| 20260508154950 | 66 | 280 | 2.0 | 9.0 | 0.00 | 0.00 | 0.00 | 43 | 1021.6 |
| 20260508154448 | 65 | 53 | 1.0 | 5.0 | 0.00 | 0.00 | 0.00 | 41 | 1021.7 |
| 20260508153944 | 65 | 285 | 4.0 | 5.0 | 0.00 | 0.00 | 0.00 | 42 | 1021.7 |
| 20260508153441 | 65 | 315 | 4.0 | 7.0 | 0.00 | 0.00 | 0.00 | 42 | 1021.9 |
| 20260508152937 | 65 | 269 | 5.0 | 7.0 | 0.00 | 0.00 | 0.00 | 40 | 1022.0 |
| 20260508152434 | 65 | 156 | 4.0 | 7.0 | 0.00 | 0.00 | 0.00 | 38 | 1021.9 |
| 20260508151930 | 65 | 319 | 2.0 | 5.0 | 0.00 | 0.00 | 0.00 | 39 | 1022.0 |
| 20260508151427 | 64 | 357 | 0.0 | 7.0 | 0.00 | 0.00 | 0.00 | 41 | 1022.1 |
| 20260508150923 | 64 | 109 | 2.0 | 5.0 | 0.00 | 0.00 | 0.00 | 41 | 1022.2 |
| 20260508150420 | 63 | 0 | 0.0 | 7.0 | 0.00 | 0.00 | 0.00 | 43 | 1022.2 |
| 20260508145916 | 64 | 345 | 3.0 | 9.0 | 0.00 | 0.00 | 0.00 | 40 | 1022.1 |
| 20260508145413 | 63 | 324 | 2.0 | 7.0 | 0.00 | 0.00 | 0.00 | 41 | 1022.1 |
| 20260508144910 | 62 | 41 | 2.0 | 7.0 | 0.00 | 0.00 | 0.00 | 42 | 1022.1 |
| 20260508144408 | 61 | 307 | 3.0 | 9.0 | 0.00 | 0.00 | 0.00 | 45 | 1021.9 |
| 20260508143905 | 61 | 14 | 1.0 | 2.0 | 0.00 | 0.00 | 0.00 | 41 | 1022.0 |
| 20260508143402 | 61 | 289 | 5.0 | 7.0 | 0.00 | 0.00 | 0.00 | 44 | 1022.1 |
| 20260508142858 | 60 | 302 | 2.0 | 3.0 | 0.00 | 0.00 | 0.00 | 45 | 1022.2 |
| 20260508142355 | 60 | 263 | 2.0 | 3.0 | 0.00 | 0.00 | 0.00 | 45 | 1022.0 |
| 20260508141852 | 60 | 326 | 2.0 | 5.0 | 0.00 | 0.00 | 0.00 | 44 | 1022.1 |
| 20260508141348 | 60 | 351 | 2.0 | 7.0 | 0.00 | 0.00 | 0.00 | 45 | 1022.0 |
| 20260508140846 | 60 | 330 | 2.0 | 7.0 | 0.00 | 0.00 | 0.00 | 47 | 1022.1 |
| 20260508140343 | 59 | 308 | 2.0 | 7.0 | 0.00 | 0.00 | 0.00 | 46 | 1022.2 |
| 20260508135838 | 59 | 350 | 3.0 | 7.0 | 0.00 | 0.00 | 0.00 | 46 | 1021.9 |
| 20260508135335 | 59 | 250 | 3.0 | 7.0 | 0.00 | 0.00 | 0.00 | 45 | 1022.2 |
| 20260508134831 | 58 | 328 | 2.0 | 3.0 | 0.00 | 0.00 | 0.00 | 47 | 1022.1 |
| 20260508134328 | 58 | 293 | 3.0 | 9.0 | 0.00 | 0.00 | 0.00 | 47 | 1022.1 |
| 20260508133825 | 58 | 354 | 2.0 | 7.0 | 0.00 | 0.00 | 0.00 | 48 | 1022.0 |
| 20260508133323 | 57 | 309 | 3.0 | 9.0 | 0.00 | 0.00 | 0.00 | 49 | 1022.0 |
| 20260508132820 | 55 | 1 | 1.0 | 2.0 | 0.00 | 0.00 | 0.00 | 55 | 1022.0 |
| 20260508132317 | 55 | 6 | 0.0 | 2.0 | 0.00 | 0.00 | 0.00 | 58 | 1022.1 |
| 20260508131814 | 53 | 286 | 1.0 | 2.0 | 0.00 | 0.00 | 0.00 | 62 | 1021.9 |
| 20260508131309 | 52 | 308 | 0.0 | 2.0 | 0.00 | 0.00 | 0.00 | 65 | 1022.1 |
| 20260508130806 | 52 | 17 | 0.0 | 2.0 | 0.00 | 0.00 | 0.00 | 65 | 1022.0 |
| 20260508130304 | 51 | 0 | 2.0 | 2.0 | 0.00 | 0.00 | 0.00 | 66 | 1022.2 |
| 20260508125759 | 50 | 340 | 0.0 | 2.0 | 0.00 | 0.00 | 0.00 | 67 | 1022.2 |
| 20260508125256 | 50 | 235 | 0.0 | 2.0 | 0.00 | 0.00 | 0.00 | 70 | 1021.8 |
| 20260508124754 | 49 | 356 | 0.0 | 2.0 | 0.00 | 0.00 | 0.00 | 69 | 1022.2 |
| 20260508124251 | 48 | 353 | 0.0 | 2.0 | 0.00 | 0.00 | 0.00 | 70 | 1022.0 |
| 20260508123749 | 48 | 340 | 0.0 | 2.0 | 0.00 | 0.00 | 0.00 | 72 | 1022.3 |
| 20260508123247 | 48 | 354 | 0.0 | 2.0 | 0.00 | 0.00 | 0.00 | 72 | 1022.2 |
| 20260508122743 | 47 | 355 | 0.0 | 2.0 | 0.00 | 0.00 | 0.00 | 72 | 1022.1 |
| 20260508122240 | 46 | 346 | 0.0 | 2.0 | 0.00 | 0.00 | 0.00 | 74 | 1022.1 |
| 20260508121737 | 45 | 356 | 0.0 | 2.0 | 0.00 | 0.00 | 0.00 | 80 | 1022.3 |
| 20260508121235 | 44 | 345 | 1.0 | 2.0 | 0.00 | 0.00 | 0.00 | 81 | 1022.2 |
| 20260508120732 | 42 | 5 | 0.0 | 2.0 | 0.00 | 0.00 | 0.00 | 88 | 1022.0 |
| 20260508120231 | 41 | 22 | 0.0 | 0.0 | 0.00 | 0.00 | 0.00 | 94 | 1022.2 |
| 20260508115728 | 41 | 24 | 0.0 | 0.0 | 0.00 | 0.00 | 0.00 | 97 | 1022.0 |
| 20260508115225 | 40 | 24 | 0.0 | 0.0 | 0.00 | 0.00 | 0.00 | 97 | 1022.0 |
| 20260508114721 | 40 | 24 | 0.0 | 0.0 | 0.00 | 0.00 | 0.00 | 98 | 1021.9 |
| 20260508114218 | 40 | 24 | 0.0 | 0.0 | 0.00 | 0.00 | 0.00 | 98 | 1021.9 |
| 20260508113715 | 39 | 24 | 0.0 | 0.0 | 0.00 | 0.00 | 0.00 | 98 | 1021.7 |
| 20260508113214 | 39 | 25 | 0.0 | 0.0 | 0.00 | 0.00 | 0.00 | 98 | 1021.7 |
| 20260508112709 | 39 | 25 | 0.0 | 0.0 | 0.00 | 0.00 | 0.00 | 98 | 1021.7 |
| 20260508112206 | 39 | 25 | 0.0 | 0.0 | 0.00 | 0.00 | 0.00 | 98 | 1021.7 |
| 20260508111703 | 39 | 24 | 0.0 | 0.0 | 0.00 | 0.00 | 0.00 | 98 | 1021.7 |
| 20260508111201 | 38 | 23 | 0.0 | 0.0 | 0.00 | 0.00 | 0.00 | 98 | 1021.6 |
| 20260508110657 | 38 | 22 | 0.0 | 0.0 | 0.00 | 0.00 | 0.00 | 98 | 1021.6 |
| 20260508110155 | 38 | 23 | 0.0 | 0.0 | 0.00 | 0.00 | 0.00 | 98 | 1021.3 |
| 20260508105654 | 38 | 21 | 0.0 | 0.0 | 0.00 | 0.00 | 0.00 | 98 | 1021.2 |
| 20260508105152 | 38 | 21 | 0.0 | 0.0 | 0.00 | 0.00 | 0.00 | 98 | 1021.1 |
| 20260508104649 | 38 | 22 | 0.0 | 0.0 | 0.00 | 0.00 | 0.00 | 98 | 1021.1 |
| 20260508104146 | 38 | 22 | 0.0 | 0.0 | 0.00 | 0.00 | 0.00 | 98 | 1020.9 |
| 20260508103643 | 38 | 22 | 0.0 | 0.0 | 0.00 | 0.00 | 0.00 | 98 | 1021.0 |
| 20260508103140 | 38 | 23 | 0.0 | 0.0 | 0.00 | 0.00 | 0.00 | 98 | 1021.2 |
| 20260508102637 | 38 | 21 | 0.0 | 0.0 | 0.00 | 0.00 | 0.00 | 98 | 1021.0 |
| 20260508102135 | 38 | 21 | 0.0 | 0.0 | 0.00 | 0.00 | 0.00 | 98 | 1021.0 |
| 20260508101632 | 38 | 21 | 0.0 | 0.0 | 0.00 | 0.00 | 0.00 | 98 | 1021.2 |
| 20260508101130 | 38 | 24 | 0.0 | 0.0 | 0.00 | 0.00 | 0.00 | 98 | 1021.2 |
| 20260508100627 | 38 | 23 | 0.0 | 0.0 | 0.00 | 0.00 | 0.00 | 98 | 1020.8 |
| 20260508100125 | 38 | 22 | 0.0 | 0.0 | 0.00 | 0.00 | 0.00 | 98 | 1020.8 |
| 20260508095621 | 38 | 22 | 0.0 | 0.0 | 0.00 | 0.00 | 0.00 | 98 | 1021.0 |
| 20260508095118 | 38 | 22 | 0.0 | 0.0 | 0.00 | 0.00 | 0.00 | 98 | 1020.9 |
| 20260508094615 | 38 | 22 | 0.0 | 0.0 | 0.00 | 0.00 | 0.00 | 98 | 1021.0 |
| 20260508094112 | 38 | 22 | 0.0 | 0.0 | 0.00 | 0.00 | 0.00 | 97 | 1021.1 |
| 20260508093609 | 38 | 22 | 0.0 | 0.0 | 0.00 | 0.00 | 0.00 | 97 | 1021.0 |
| 20260508093107 | 38 | 25 | 0.0 | 0.0 | 0.00 | 0.00 | 0.00 | 97 | 1021.0 |
| 20260508092604 | 38 | 27 | 0.0 | 0.0 | 0.00 | 0.00 | 0.00 | 97 | 1021.1 |
| 20260508092102 | 38 | 35 | 0.0 | 0.0 | 0.00 | 0.00 | 0.00 | 97 | 1021.2 |
| 20260508091559 | 38 | 35 | 0.0 | 0.0 | 0.00 | 0.00 | 0.00 | 97 | 1020.9 |
| 20260508091056 | 38 | 18 | 0.0 | 0.0 | 0.00 | 0.00 | 0.00 | 97 | 1020.9 |
| 20260508090554 | 38 | 18 | 0.0 | 0.0 | 0.00 | 0.00 | 0.00 | 97 | 1021.1 |
| 20260508090050 | 39 | 18 | 0.0 | 0.0 | 0.00 | 0.00 | 0.00 | 97 | 1021.2 |
| 20260508085547 | 39 | 18 | 0.0 | 0.0 | 0.00 | 0.00 | 0.00 | 97 | 1021.1 |
| 20260508085044 | 39 | 18 | 0.0 | 0.0 | 0.00 | 0.00 | 0.00 | 97 | 1020.9 |
| 20260508084541 | 39 | 19 | 0.0 | 0.0 | 0.00 | 0.00 | 0.00 | 97 | 1021.2 |
| 20260508084038 | 39 | 19 | 0.0 | 0.0 | 0.00 | 0.00 | 0.00 | 97 | 1021.1 |
| 20260508083536 | 39 | 19 | 0.0 | 0.0 | 0.00 | 0.00 | 0.00 | 97 | 1021.0 |
| 20260508083032 | 39 | 19 | 0.0 | 0.0 | 0.00 | 0.00 | 0.00 | 97 | 1021.3 |
| 20260508082528 | 39 | 19 | 0.0 | 0.0 | 0.00 | 0.00 | 0.00 | 97 | 1021.2 |
| 20260508082026 | 39 | 19 | 0.0 | 0.0 | 0.00 | 0.00 | 0.00 | 97 | 1021.0 |
| 20260508081523 | 39 | 19 | 0.0 | 0.0 | 0.00 | 0.00 | 0.00 | 97 | 1021.1 |
| 20260508081019 | 39 | 21 | 0.0 | 0.0 | 0.00 | 0.00 | 0.00 | 97 | 1021.1 |
| 20260508080517 | 39 | 22 | 0.0 | 0.0 | 0.00 | 0.00 | 0.00 | 96 | 1021.1 |
| 20260508080014 | 39 | 25 | 0.0 | 0.0 | 0.00 | 0.00 | 0.00 | 96 | 1021.3 |
| 20260508075511 | 40 | 27 | 0.0 | 0.0 | 0.00 | 0.00 | 0.00 | 96 | 1021.1 |
| 20260508075008 | 40 | 26 | 0.0 | 0.0 | 0.00 | 0.00 | 0.00 | 96 | 1020.8 |
| 20260508074506 | 40 | 25 | 0.0 | 0.0 | 0.00 | 0.00 | 0.00 | 96 | 1021.2 |
| 20260508074002 | 40 | 17 | 0.0 | 0.0 | 0.00 | 0.00 | 0.00 | 96 | 1021.1 |
| 20260508073459 | 40 | 16 | 0.0 | 0.0 | 0.00 | 0.00 | 0.00 | 96 | 1021.1 |
| 20260508072956 | 40 | 16 | 0.0 | 0.0 | 0.00 | 0.00 | 0.00 | 96 | 1020.9 |
| 20260508072453 | 40 | 17 | 0.0 | 0.0 | 0.00 | 0.00 | 0.00 | 96 | 1021.0 |
| 20260508071950 | 40 | 18 | 0.0 | 0.0 | 0.00 | 0.00 | 0.00 | 96 | 1020.9 |
| 20260508071448 | 40 | 18 | 0.0 | 0.0 | 0.00 | 0.00 | 0.00 | 96 | 1021.3 |
| 20260508070945 | 40 | 18 | 0.0 | 0.0 | 0.00 | 0.00 | 0.00 | 96 | 1021.1 |
| 20260508070443 | 40 | 36 | 0.0 | 0.0 | 0.00 | 0.00 | 0.00 | 96 | 1021.1 |
| 20260508065941 | 40 | 6 | 0.0 | 0.0 | 0.00 | 0.00 | 0.00 | 95 | 1021.0 |
| 20260508065439 | 40 | 7 | 0.0 | 0.0 | 0.00 | 0.00 | 0.00 | 95 | 1021.0 |
| 20260508064937 | 41 | 7 | 0.0 | 0.0 | 0.00 | 0.00 | 0.00 | 95 | 1021.1 |
| 20260508064434 | 41 | 5 | 0.0 | 0.0 | 0.00 | 0.00 | 0.00 | 95 | 1021.0 |
| 20260508063931 | 41 | 11 | 0.0 | 2.0 | 0.00 | 0.00 | 0.00 | 95 | 1021.1 |
| 20260508063428 | 41 | 31 | 0.0 | 0.0 | 0.00 | 0.00 | 0.00 | 95 | 1021.0 |
| 20260508062926 | 41 | 36 | 0.0 | 0.0 | 0.00 | 0.00 | 0.00 | 95 | 1021.1 |
| 20260508062424 | 41 | 31 | 0.0 | 0.0 | 0.00 | 0.00 | 0.00 | 95 | 1021.0 |
| 20260508061920 | 41 | 31 | 0.0 | 0.0 | 0.00 | 0.00 | 0.00 | 95 | 1021.0 |
| 20260508061418 | 41 | 32 | 0.0 | 0.0 | 0.00 | 0.00 | 0.00 | 94 | 1020.9 |
| 20260508060914 | 41 | 31 | 0.0 | 0.0 | 0.00 | 0.00 | 0.00 | 94 | 1021.0 |
| 20260508060412 | 41 | 30 | 0.0 | 0.0 | 0.00 | 0.00 | 0.00 | 94 | 1021.0 |
| 20260508055907 | 41 | 31 | 0.0 | 0.0 | 0.00 | 0.00 | 0.00 | 94 | 1021.2 |
| 20260508055404 | 41 | 31 | 0.0 | 0.0 | 0.00 | 0.00 | 0.00 | 94 | 1021.1 |
| 20260508054900 | 41 | 30 | 0.0 | 0.0 | 0.00 | 0.00 | 0.00 | 93 | 1021.2 |
| 20260508054358 | 42 | 29 | 0.0 | 0.0 | 0.00 | 0.00 | 0.00 | 93 | 1021.2 |
| 20260508053855 | 42 | 28 | 0.0 | 0.0 | 0.00 | 0.00 | 0.00 | 93 | 1021.6 |
| 20260508053352 | 42 | 30 | 0.0 | 0.0 | 0.00 | 0.00 | 0.00 | 92 | 1021.3 |
| 20260508052850 | 42 | 31 | 0.0 | 0.0 | 0.00 | 0.00 | 0.00 | 92 | 1021.6 |
| 20260508052347 | 42 | 30 | 0.0 | 0.0 | 0.00 | 0.00 | 0.00 | 92 | 1021.7 |
| 20260508051843 | 42 | 30 | 0.0 | 0.0 | 0.00 | 0.00 | 0.00 | 91 | 1021.3 |
| 20260508051338 | 42 | 29 | 0.0 | 0.0 | 0.00 | 0.00 | 0.00 | 91 | 1021.6 |
| 20260508050835 | 42 | 28 | 0.0 | 0.0 | 0.00 | 0.00 | 0.00 | 91 | 1021.6 |
| 20260508050332 | 42 | 23 | 0.0 | 0.0 | 0.00 | 0.00 | 0.00 | 90 | 1021.7 |
| 20260508045828 | 43 | 34 | 0.0 | 0.0 | 0.00 | 0.00 | 0.00 | 90 | 1021.3 |
| 20260508045326 | 43 | 1 | 0.0 | 0.0 | 0.00 | 0.00 | 0.00 | 90 | 1021.2 |
| 20260508044823 | 43 | 17 | 0.0 | 0.0 | 0.00 | 0.00 | 0.00 | 89 | 1021.2 |
| 20260508044319 | 43 | 8 | 0.0 | 0.0 | 0.00 | 0.00 | 0.00 | 89 | 1021.3 |
| 20260508043816 | 43 | 18 | 0.0 | 0.0 | 0.00 | 0.00 | 0.00 | 89 | 1021.2 |
| 20260508043313 | 43 | 17 | 0.0 | 0.0 | 0.00 | 0.00 | 0.00 | 88 | 1021.2 |
| 20260508042809 | 44 | 27 | 0.0 | 0.0 | 0.00 | 0.00 | 0.00 | 87 | 1021.0 |
| 20260508042308 | 44 | 27 | 0.0 | 0.0 | 0.00 | 0.00 | 0.00 | 86 | 1021.3 |
| 20260508041804 | 44 | 10 | 2.0 | 2.0 | 0.00 | 0.00 | 0.00 | 87 | 1021.3 |
| 20260508041300 | 44 | 59 | 0.0 | 2.0 | 0.00 | 0.00 | 0.00 | 86 | 1021.2 |
| 20260508040756 | 44 | 20 | 0.0 | 0.0 | 0.00 | 0.00 | 0.00 | 87 | 1021.2 |
| 20260508040254 | 44 | 68 | 0.0 | 0.0 | 0.00 | 0.00 | 0.00 | 86 | 1021.1 |
| 20260508035752 | 44 | 25 | 0.0 | 0.0 | 0.00 | 0.00 | 0.00 | 85 | 1021.1 |
| 20260508035249 | 44 | 26 | 0.0 | 0.0 | 0.00 | 0.00 | 0.00 | 85 | 1021.3 |
| 20260508034745 | 44 | 25 | 0.0 | 0.0 | 0.00 | 0.00 | 0.00 | 84 | 1021.4 |
| 20260508034243 | 44 | 24 | 0.0 | 0.0 | 0.00 | 0.00 | 0.00 | 84 | 1021.3 |
| 20260508033740 | 45 | 25 | 0.0 | 0.0 | 0.00 | 0.00 | 0.00 | 84 | 1021.7 |
| 20260508033238 | 45 | 25 | 0.0 | 0.0 | 0.00 | 0.00 | 0.00 | 83 | 1021.4 |
| 20260508032735 | 45 | 13 | 0.0 | 0.0 | 0.00 | 0.00 | 0.00 | 83 | 1021.4 |
| 20260508032232 | 45 | 36 | 0.0 | 0.0 | 0.00 | 0.00 | 0.00 | 82 | 1021.6 |
| 20260508031729 | 45 | 37 | 0.0 | 0.0 | 0.00 | 0.00 | 0.00 | 81 | 1021.6 |
| 20260508031225 | 46 | 36 | 0.0 | 0.0 | 0.00 | 0.00 | 0.00 | 79 | 1021.6 |
| 20260508030722 | 46 | 36 | 0.0 | 0.0 | 0.00 | 0.00 | 0.00 | 78 | 1021.7 |
| 20260508030219 | 46 | 30 | 0.0 | 0.0 | 0.00 | 0.00 | 0.00 | 78 | 1021.6 |
| 20260508025715 | 46 | 24 | 0.0 | 0.0 | 0.00 | 0.00 | 0.00 | 77 | 1021.4 |
| 20260508025213 | 46 | 25 | 0.0 | 0.0 | 0.00 | 0.00 | 0.00 | 76 | 1021.4 |
| 20260508024708 | 46 | 25 | 0.0 | 0.0 | 0.00 | 0.00 | 0.00 | 75 | 1021.3 |
| 20260508024206 | 47 | 25 | 0.0 | 0.0 | 0.00 | 0.00 | 0.00 | 74 | 1021.6 |
| 20260508023702 | 47 | 27 | 0.0 | 0.0 | 0.00 | 0.00 | 0.00 | 72 | 1021.6 |
| 20260508023200 | 48 | 24 | 0.0 | 0.0 | 0.00 | 0.00 | 0.00 | 72 | 1021.7 |
| 20260508022655 | 48 | 32 | 0.0 | 0.0 | 0.00 | 0.00 | 0.00 | 70 | 1021.4 |
| 20260508022153 | 48 | 32 | 0.0 | 0.0 | 0.00 | 0.00 | 0.00 | 68 | 1021.1 |
| 20260508021648 | 48 | 21 | 0.0 | 0.0 | 0.00 | 0.00 | 0.00 | 69 | 1021.2 |
| 20260508021144 | 48 | 20 | 0.0 | 0.0 | 0.00 | 0.00 | 0.00 | 69 | 1021.3 |
| 20260508020642 | 49 | 43 | 0.0 | 0.0 | 0.00 | 0.00 | 0.00 | 70 | 1021.0 |
| 20260508020140 | 49 | 40 | 0.0 | 0.0 | 0.00 | 0.00 | 0.00 | 68 | 1021.1 |
| 20260508015637 | 49 | 26 | 0.0 | 0.0 | 0.00 | 0.00 | 0.00 | 67 | 1021.0 |
| 20260508015134 | 50 | 14 | 0.0 | 0.0 | 0.00 | 0.00 | 0.00 | 66 | 1020.9 |
| 20260508014630 | 50 | 35 | 0.0 | 0.0 | 0.00 | 0.00 | 0.00 | 66 | 1021.0 |
| 20260508014126 | 50 | 30 | 0.0 | 0.0 | 0.00 | 0.00 | 0.00 | 62 | 1020.7 |
| 20260508013622 | 51 | 31 | 0.0 | 0.0 | 0.00 | 0.00 | 0.00 | 61 | 1020.5 |
| 20260508013120 | 51 | 30 | 0.0 | 0.0 | 0.00 | 0.00 | 0.00 | 58 | 1020.7 |
| 20260508012617 | 52 | 31 | 0.0 | 0.0 | 0.00 | 0.00 | 0.00 | 57 | 1020.6 |
| 20260508012114 | 52 | 31 | 0.0 | 0.0 | 0.00 | 0.00 | 0.00 | 54 | 1020.6 |
| 20260508011613 | 53 | 23 | 0.0 | 0.0 | 0.00 | 0.00 | 0.00 | 52 | 1020.7 |
| 20260508011109 | 54 | 17 | 0.0 | 0.0 | 0.00 | 0.00 | 0.00 | 53 | 1020.4 |
| 20260508010606 | 54 | 17 | 0.0 | 0.0 | 0.00 | 0.00 | 0.00 | 50 | 1020.4 |
| 20260508010105 | 55 | 16 | 0.0 | 0.0 | 0.00 | 0.00 | 0.00 | 46 | 1020.3 |
| 20260508005600 | 55 | 13 | 0.0 | 0.0 | 0.00 | 0.00 | 0.00 | 42 | 1020.2 |
| 20260508005057 | 56 | 14 | 0.0 | 0.0 | 0.00 | 0.00 | 0.00 | 42 | 1020.5 |
| 20260508004553 | 56 | 15 | 0.0 | 0.0 | 0.00 | 0.00 | 0.00 | 42 | 1020.3 |
| 20260508004050 | 57 | 13 | 0.0 | 2.0 | 0.00 | 0.00 | 0.00 | 41 | 1020.2 |
| 20260508003546 | 57 | 34 | 0.0 | 2.0 | 0.00 | 0.00 | 0.00 | 39 | 1020.2 |
| 20260508003044 | 57 | 49 | 0.0 | 2.0 | 0.00 | 0.00 | 0.00 | 39 | 1020.0 |
| 20260508002540 | 57 | 345 | 1.0 | 2.0 | 0.00 | 0.00 | 0.00 | 40 | 1019.9 |
| 20260508002037 | 58 | 29 | 0.0 | 2.0 | 0.00 | 0.00 | 0.00 | 38 | 1019.9 |
| 20260508001533 | 58 | 15 | 1.0 | 3.0 | 0.00 | 0.00 | 0.00 | 38 | 1020.2 |
| 20260508001029 | 58 | 18 | 0.0 | 2.0 | 0.00 | 0.00 | 0.00 | 37 | 1019.9 |